Weather History for Worthington, MN

Change the Weather History Date:

Thursday, December 6, 2012

  Actual Average Record
Temperature  
Mean Temperature 40 °F -  
Max Temperature 50 °F 31 °F 50 °F (2012)
Min Temperature 30 °F 17 °F -18 °F (1972)
Degree Days  
Heating Degree Days 25    
Moisture  
Dew Point 25 °F    
Average Humidity 55    
Maximum Humidity 70    
Minimum Humidity 32    
Precipitation  
Precipitation 0.00 in - - ()
Sea Level Pressure  
Sea Level Pressure 29.89 in    
Wind  
Wind Speed 17 mph (WNW)    
Max Wind Speed 29 mph    
Max Gust Speed 39 mph    
Visibility 10 miles    
Events      
Averages and records for this station are not official NWS values.
T = Trace of Precipitation, MM = Missing Value Source: NWS Daily Summary

Daily Weather History Graph

Daily Weather History Graph

Search for Another Location

Airport:

Trip Planner

Search our weather history database for the weather conditions in past years. The results will help you decide how hot, cold, wet, or windy it might be!

Date:

Astronomy

Dec. 06, 2012 Rise Set
Actual Time 7:41 AM CST 4:45 PM CST
Civil Twilight 7:09 AM CST 5:17 PM CST
Nautical Twilight 6:33 AM CST 5:53 PM CST
Astronomical Twilight 5:58 AM CST 6:28 PM CST
Moon No Moon Rise 12:23 PM CST (12/6)
Length of Visible Light 10h 08m
Length of Day
9h 03m
Waning Gibbous, 49% of the Moon is Illuminated
Dec 6
Waning Gibbous
Dec 13
New
Dec 19
First Quarter
Dec 28
Full
Jan 4
Last Quarter

Hourly Weather History & Observations

Time (CST) Temp. Windchill Dew Point Humidity Pressure Visibility Wind Dir Wind Speed Gust Speed Precip Events Conditions
12:15 AM 50.0 °F - 21.2 °F 32% 29.77 in 10.0 mi South 27.6 mph 39.1 mph N/A   Scattered Clouds
12:35 AM 50.0 °F - 21.2 °F 32% 29.76 in 10.0 mi South 25.3 mph 36.8 mph N/A   Partly Cloudy
12:55 AM 48.2 °F - 21.2 °F 34% 29.76 in 10.0 mi South 25.3 mph 34.5 mph N/A   Clear
1:15 AM 48.2 °F - 21.2 °F 34% 29.76 in 10.0 mi South 28.8 mph 35.7 mph N/A   Clear
1:35 AM 48.2 °F - 21.2 °F 34% 29.76 in 10.0 mi SSW 25.3 mph 33.4 mph N/A   Partly Cloudy
1:55 AM 48.2 °F - 21.2 °F 34% 29.76 in 10.0 mi SSW 23.0 mph 34.5 mph N/A   Partly Cloudy
2:15 AM 48.2 °F - 23.0 °F 37% 29.76 in 10.0 mi SSW 23.0 mph 29.9 mph N/A   Clear
2:35 AM 46.4 °F 39.0 °F 24.8 °F 43% 29.77 in 10.0 mi SSW 19.6 mph 24.2 mph N/A   Clear
2:55 AM 46.4 °F 38.3 °F 24.8 °F 43% 29.78 in 10.0 mi SSW 23.0 mph 28.8 mph N/A   Partly Cloudy
3:15 AM 44.6 °F 36.4 °F 28.4 °F 53% 29.77 in 10.0 mi SSW 20.7 mph 26.5 mph N/A   Mostly Cloudy
3:35 AM 42.8 °F 34.8 °F 28.4 °F 57% 29.77 in 10.0 mi SSW 17.3 mph - N/A   Mostly Cloudy
3:55 AM 42.8 °F 34.5 °F 28.4 °F 57% 29.78 in 10.0 mi SW 18.4 mph 24.2 mph N/A   Mostly Cloudy
4:15 AM 42.8 °F 34.3 °F 28.4 °F 57% 29.79 in 10.0 mi SW 19.6 mph - N/A   Scattered Clouds
4:35 AM 42.8 °F 34.8 °F 30.2 °F 61% 29.79 in 10.0 mi SW 17.3 mph 23.0 mph N/A   Mostly Cloudy
4:55 AM 42.8 °F 34.8 °F 30.2 °F 61% 29.80 in 10.0 mi SW 17.3 mph 21.9 mph N/A   Mostly Cloudy
5:15 AM 42.8 °F 36.2 °F 30.2 °F 61% 29.80 in 10.0 mi SW 12.7 mph - N/A   Partly Cloudy
5:35 AM 42.8 °F 36.6 °F 30.2 °F 61% 29.81 in 10.0 mi WSW 11.5 mph - N/A   Partly Cloudy
5:55 AM 41.0 °F 36.4 °F 30.2 °F 65% 29.81 in 10.0 mi WSW 6.9 mph - N/A   Scattered Clouds
6:15 AM 41.0 °F 36.4 °F 32.0 °F 70% 29.81 in 10.0 mi WSW 6.9 mph - N/A   Mostly Cloudy
6:35 AM 41.0 °F 34.7 °F 32.0 °F 70% 29.84 in 10.0 mi West 10.4 mph - N/A   Mostly Cloudy
6:55 AM 39.2 °F 33.0 °F 30.2 °F 70% 29.84 in 10.0 mi West 9.2 mph - N/A   Mostly Cloudy
7:15 AM 41.0 °F 36.4 °F 30.2 °F 65% 29.85 in 10.0 mi WNW 6.9 mph - N/A   Mostly Cloudy
7:35 AM 39.2 °F 35.0 °F 30.2 °F 70% 29.85 in 10.0 mi NW 5.8 mph - N/A   Mostly Cloudy
7:55 AM 39.2 °F 33.6 °F 30.2 °F 70% 29.87 in 10.0 mi WNW 8.1 mph - N/A   Scattered Clouds
8:15 AM 41.0 °F 33.9 °F 28.4 °F 61% 29.88 in 10.0 mi NW 12.7 mph - N/A   Clear
8:35 AM 41.0 °F 33.9 °F 28.4 °F 61% 29.88 in 10.0 mi NW 12.7 mph - N/A   Clear
8:55 AM 41.0 °F 32.5 °F 26.6 °F 57% 29.89 in 10.0 mi NW 17.3 mph - N/A   Clear
9:15 AM 39.2 °F 32.0 °F 26.6 °F 61% 29.91 in 10.0 mi NW 11.5 mph - N/A   Clear
9:35 AM 39.2 °F 30.8 °F 26.6 °F 61% 29.90 in 10.0 mi NW 15.0 mph - N/A   Clear
9:55 AM 39.2 °F 30.8 °F 26.6 °F 61% 29.91 in 10.0 mi NNW 15.0 mph - N/A   Clear
10:15 AM 41.0 °F 31.9 °F 26.6 °F 57% 29.92 in 10.0 mi NNW 19.6 mph 23.0 mph N/A   Clear
10:35 AM 39.2 °F 31.6 °F 26.6 °F 61% 29.92 in 10.0 mi NW 12.7 mph - N/A   Clear
10:55 AM 39.2 °F 31.6 °F 28.4 °F 65% 29.92 in 10.0 mi NW 12.7 mph - N/A   Clear
11:15 AM 41.0 °F 34.3 °F 26.6 °F 57% 29.92 in 10.0 mi NNW 11.5 mph - N/A   Clear
11:35 AM 42.8 °F 35.4 °F 28.4 °F 57% 29.92 in 10.0 mi NW 15.0 mph - N/A   Clear
11:55 AM 42.8 °F 35.8 °F 26.6 °F 53% 29.92 in 10.0 mi NW 13.8 mph 20.7 mph N/A   Clear
12:15 PM 42.8 °F 34.5 °F 26.6 °F 53% 29.92 in 10.0 mi NW 18.4 mph - N/A   Clear
12:35 PM 44.6 °F 37.4 °F 26.6 °F 49% 29.91 in 10.0 mi NW 16.1 mph - N/A   Scattered Clouds
12:55 PM 44.6 °F 36.9 °F 28.4 °F 53% 29.91 in 10.0 mi NW 18.4 mph - N/A   Mostly Cloudy
1:15 PM 44.6 °F 38.4 °F 26.6 °F 49% 29.91 in 10.0 mi NNW 12.7 mph - N/A   Mostly Cloudy
1:35 PM 44.6 °F 37.8 °F 26.6 °F 49% 29.92 in 10.0 mi NW 15.0 mph 19.6 mph N/A   Scattered Clouds
1:55 PM 46.4 °F 39.8 °F 28.4 °F 50% 29.92 in 10.0 mi NW 16.1 mph - N/A   Partly Cloudy
2:15 PM 44.6 °F 38.4 °F 26.6 °F 49% 29.92 in 10.0 mi NW 12.7 mph - N/A   Scattered Clouds
2:35 PM 44.6 °F 38.8 °F 26.6 °F 49% 29.92 in 10.0 mi WNW 11.5 mph - N/A   Overcast
2:55 PM 42.8 °F 34.8 °F 26.6 °F 53% 29.93 in 10.0 mi WNW 17.3 mph - N/A   Mostly Cloudy
3:15 PM 42.8 °F 35.4 °F 26.6 °F 53% 29.93 in 10.0 mi WNW 15.0 mph - N/A   Partly Cloudy
3:35 PM 42.8 °F 35.4 °F 26.6 °F 53% 29.94 in 10.0 mi WNW 15.0 mph - N/A   Partly Cloudy
3:55 PM 42.8 °F 36.2 °F 26.6 °F 53% 29.95 in 10.0 mi WNW 12.7 mph - N/A   Partly Cloudy
4:15 PM 42.8 °F 35.4 °F 24.8 °F 49% 29.94 in 10.0 mi NW 15.0 mph - N/A   Clear
4:35 PM 41.0 °F 33.9 °F 24.8 °F 53% 29.95 in 10.0 mi NW 12.7 mph - N/A   Mostly Cloudy
4:55 PM 39.2 °F 33.0 °F 24.8 °F 56% 29.95 in 10.0 mi NW 9.2 mph - N/A   Scattered Clouds
5:15 PM 39.2 °F 33.0 °F 24.8 °F 56% 29.95 in 10.0 mi NW 9.2 mph - N/A   Mostly Cloudy
5:35 PM 39.2 °F 33.0 °F 24.8 °F 56% 29.95 in 10.0 mi NW 9.2 mph - N/A   Overcast
5:55 PM 39.2 °F 32.5 °F 24.8 °F 56% 29.95 in 10.0 mi NW 10.4 mph - N/A   Overcast
6:15 PM 39.2 °F 32.5 °F 23.0 °F 52% 29.95 in 10.0 mi NW 10.4 mph - N/A   Mostly Cloudy
6:35 PM 37.4 °F 30.3 °F 23.0 °F 56% 29.96 in 10.0 mi NNW 10.4 mph - N/A   Overcast
7:15 PM 37.4 °F 31.4 °F 23.0 °F 56% 29.97 in 10.0 mi NNW 8.1 mph - N/A   Overcast
7:35 PM 37.4 °F 29.3 °F 23.0 °F 56% 29.97 in 10.0 mi NNW 12.7 mph - N/A   Overcast
7:55 PM 37.4 °F 29.3 °F 21.2 °F 52% 29.99 in 10.0 mi North 12.7 mph - N/A   Overcast
8:35 PM 35.6 °F 28.6 °F 21.2 °F 56% 29.99 in 10.0 mi North 9.2 mph - N/A   Scattered Clouds
8:55 PM 35.6 °F 29.9 °F 21.2 °F 56% 29.99 in 10.0 mi North 6.9 mph - N/A   Clear
9:15 PM 33.8 °F 25.3 °F 21.2 °F 60% 29.99 in 10.0 mi North 11.5 mph - N/A   Mostly Cloudy
9:35 PM 33.8 °F 27.0 °F 19.4 °F 56% 29.99 in 10.0 mi North 8.1 mph - N/A   Overcast
9:55 PM 33.8 °F 27.0 °F 19.4 °F 56% 30.00 in 10.0 mi North 8.1 mph - N/A   Overcast
10:15 PM 33.8 °F 25.8 °F 19.4 °F 56% 30.00 in 10.0 mi North 10.4 mph - N/A   Overcast
10:35 PM 32.0 °F 24.8 °F 19.4 °F 60% 30.00 in 10.0 mi North 8.1 mph - N/A   Overcast
10:55 PM 32.0 °F 25.6 °F 19.4 °F 60% 29.99 in 10.0 mi NNE 6.9 mph - N/A   Overcast
11:15 PM 32.0 °F 24.8 °F 17.6 °F 55% 29.99 in 10.0 mi NNE 8.1 mph - N/A   Mostly Cloudy
11:35 PM 30.2 °F 24.3 °F 19.4 °F 64% 29.99 in 10.0 mi NNE 5.8 mph - N/A   Mostly Cloudy
11:55 PM 30.2 °F 24.3 °F 19.4 °F 64% 30.00 in 10.0 mi NNE 5.8 mph - N/A   Overcast